Home > Weather > Ansbach > Past weeks

Flag for Germany Past Weather in Ansbach, Bavaria, Germany — Yesterday and Last 2 Weeks

Now
54 °F

Overcast.


Feels Like: 52 °F
Forecast: 53 / 67 °F
Wind: 7 mph from Northwest

Location: Ansbach / Katterbach

Current Time: Jun 1, 2016 at 5:46:12 AM

Latest Report: Jun 1, 2016 at 4:58 AM


Visibility: N/A

Pressure: 29.92 "Hg

Humidity: 91%

Dew Point: 51 °F

Location of AnsbachLocation

Past Weather in Ansbach — Graph

°F

Ansbach Temperature Yesterday

Maximum temperature yesterday: 67 °F (at 1:58 PM)
Minimum temperature yesterday: 50 °F (at 4:58 AM)
Average temperature yesterday: 60 °F

High & Low Weather Summary for the Past Weeks

 TemperatureHumidityPressure
High81 °F (May 22, 2:58 PM)100% (May 17, 4:58 AM)30.19 "Hg (May 17, 4:58 AM)
Low39 °F (May 17, 4:58 AM)34% (May 18, 3:58 PM)29.62 "Hg (May 30, 1:58 AM)
Average57 °F79%29.93 "Hg
* Reported May 17 4:58 AM — Jun 1 4:58 AM, Ansbach, Weather by CustomWeather, © 2016

Note: Actual official high and low records may vary slightly from our data, if they occured in-between our weather recording intervals... More about our weather records

Advertising

Ansbach Weather History for the Previous 24 Hours

Scroll right to see more
 ConditionsComfort  
Time TempWeatherWind HumidityBarometerVisibility
4:58 AM
Wed, Jun 1
54 °FOvercast.7 mph91%29.92 "HgN/A
3:58 AM53 °FPassing clouds.7 mph92%29.93 "HgN/A
2:58 AM53 °FPassing clouds.6 mph92%29.93 "HgN/A
1:58 AM54 °FPassing clouds.5 mph89%29.93 "HgN/A
12:58 AM55 °FClear.7 mph82%29.94 "HgN/A
11:58 PM
Tue, May 31
57 °FPassing clouds.3 mph86%29.94 "HgN/A
10:58 PM60 °FOvercast.3 mph73%29.92 "HgN/A
9:58 PM63 °FOvercast.2 mph68%29.91 "HgN/A
8:58 PM64 °FMostly cloudy.5 mph64%29.90 "HgN/A
7:58 PM66 °FOvercast.3 mph60%29.90 "HgN/A
6:58 PM66 °FMostly cloudy.5 mph60%29.89 "HgN/A
5:58 PM66 °FMostly cloudy.3 mph62%29.90 "HgN/A
4:58 PM66 °FMore clouds than sun.5 mph56%29.90 "HgN/A
3:58 PM66 °FMostly cloudy.2 mph60%29.90 "HgN/A
2:58 PM66 °FOvercast.6 mph60%29.90 "HgN/A
1:58 PM67 °FMore clouds than sun.1 mph60%29.90 "HgN/A
12:58 PM65 °FOvercast.10 mph63%29.90 "HgN/A
11:58 AM65 °FPartly sunny.10 mph63%29.89 "HgN/A
10:58 AM65 °FScattered clouds.12 mph66%29.87 "HgN/A
9:58 AM63 °FSunny.7 mph68%29.88 "HgN/A
8:58 AM60 °FSunny.1 mph77%29.87 "HgN/A
7:58 AM57 °FSunny.5 mph87%29.86 "HgN/A
6:58 AM53 °FSunny.3 mph94%29.86 "HgN/A
5:58 AM50 °FClear.6 mph100%29.85 "HgN/A
Weather by CustomWeather, © 2016

See weather overviewHow to use our weather pages